sat.trackr.live / text

‹ back to catalog

YAOGAN-21

NORAD 40143 · 2014-053A

PAYLOAD ACTIVE UNKNOWN

§ Identity

Operator
Country
PRC
Launch date
2014-09-08
Launch site
TAISC
Launch vehicle
Mass (kg)
RCS (m²)
5.00

Purposes: earth_obs

External: N2YO · Heavens-Above · Gunter

§ Orbital elements

Epoch: 2026-09-12T04:36:35.974656Z

Period
94.28 min
Inclination
97.1402°
Eccentricity
0.0009050
Mean motion
15.27343259 rev/d
Perigee alt
477.5 km
Apogee alt
490.0 km
Semi-major
6,861.9 km
B*
1.6237e-4
RAAN
291.7223°
Arg perigee
134.3903°
Mean anomaly
225.8079°
Rev number
66,823

§ Raw data

YAOGAN-211 40143U 14053A   26255.19208304  .00004282  00000+0  16237-3 0  99992 40143  97.1402 291.7223 0009050 134.3903 225.8079 15.27343259668239

JSON: /api/v1/satellites/40143 · /tle

For live sub-satellite position, see the globe view (requires WebGL).

§ Visibility from observer

Set your observer location to see the next 7 days of passes ≥ 10°. The values pass through the URL so the page stays shareable.

No JS? Fill the form by hand. The geolocation button needs JavaScript.

§ Radio — SatNOGS DB

ModeDescriptionDownlinkUplink
FM S-band telemetry 2.249 GHz

1 transmitter · refreshed weekly from db.satnogs.org